[[{"header":{"parameterUnit":"m.s-1","parameterCategory":1,"la1":30.2991,"la2":30.254,"lo1":-89.0895,"lo2":-89.0444,"dy":0.0017,"dx":0.0017,"nx":28,"ny":28,"refTime":"2023-09-10T21:00:00:Z","depth":0,"parameterNumber":2,"parameterNumberName":"U-component_of_WINDS"},"data":[0,0,0,0,0,0,0,0,0,0,0,0,0,0,0,0,0,0,0,0,0,0,0,0,0,0,0,0,0,0,0,0,0,0,0,0,0,0,0,0,0,0,0,0,0,0,0,0,0,0,0,0,0,0,0,0,0,0,0.6165,0.6165,0,0.6122,0.6122,0.6121,0.6012,0.601,0.6008,0.6006,0.5967,0.5968,0.5969,0,0,0,0,0,0,0,0,0,0,0,0,0,0.6158,0.6159,0.6166,0.6165,0.6164,0.6122,0.6122,0.6121,0.6013,0.601,0.6007,0.6005,0.5967,0.5968,0.5969,0,0,0,0,0,0,0,0,0,0,0,0,0,0.6143,0.6159,0.6166,0.6105,0.6099,0.6123,0.6122,0.6121,0.6013,0.601,0.6006,0.6003,0.5966,0.5968,0.597,0.605,0,0,0.5975,0.5975,0,0,0,0,0,0,0,0,0.6144,0.6144,0.6115,0.6109,0.6103,0.6069,0.6105,0.6097,0.6014,0.6046,0.6006,0.6002,0.6004,0.6003,0.6002,0.6048,0.6046,0.5975,0.5976,0.5977,0.5977,0,0,0,0,0,0,0,0.6146,0.6145,0.6149,0.6114,0.6107,0.6082,0.6076,0.6103,0.6046,0.6043,0.6035,0.6031,0.6,0.6001,0.6001,0.6046,0.5975,0.5976,0.5977,0.5978,0.6155,0.6159,0,0,0,0,0,0,0.6155,0.6147,0.615,0.6147,0.6115,0.6085,0.6078,0.6084,0.6045,0.6035,0.6034,0.6026,0.6,0.5999,0.5999,0.609,0.5977,0.5978,0.5979,0.6151,0.6156,0.616,0,0,0,0,0,0,0.6155,0.6156,0.6152,0.6145,0.6142,0.6088,0.6096,0.6085,0.6085,0.6038,0.6028,0.6045,0.5997,0.5996,0.6037,0.6087,0.5979,0.5981,0.6147,0.6153,0.6158,0.6274,0,0,0,0,0,0,0.6155,0.6157,0.6186,0.6146,0.6143,0.619,0.6099,0.6086,0.6087,0.6077,0.6045,0.6037,0.5994,0.6036,0.6039,0.6088,0.5982,0.6142,0.615,0.6156,0.6266,0.6283,0.6298,0,0,0,0,0,0.6155,0.6221,0.6188,0.6189,0.6178,0.6193,0.6191,0.6139,0.6092,0.6121,0.6091,0.6038,0.6081,0.6041,0.6044,0.6094,0.6139,0.6148,0.6156,0.6258,0.6279,0.6297,0,0,0,0,0,0,0.627,0.6215,0.6177,0.6232,0.6218,0.6175,0.621,0.6163,0.6164,0.6154,0.6091,0.6085,0.6135,0.6118,0.6074,0.6169,0.6101,0.6111,0.6178,0.6198,0.6214,0.6217,0.5983,0,0,0,0,0,0.6301,0.6317,0.6268,0.6322,0.6316,0.6265,0.6269,0.623,0.6214,0.6208,0.6181,0.6168,0.6179,0.6187,0.6195,0.6262,0.6254,0.6298,0.6314,0.6328,0.6337,0.6372,0.6391,0.6187,0.6187,0.6187,0,0,0.6367,0.6339,0.6353,0.6344,0.6328,0.6347,0.626,0.6284,0.6298,0.6212,0.6249,0.6229,0.6211,0.6265,0.6288,0.6253,0.6391,0.6338,0.6349,0.6351,0.6382,0.6402,0.6419,0.6193,0.6192,0.6191,0,0,0.6496,0.6476,0.6518,0.6503,0.648,0.6445,0.6456,0.6419,0.6402,0.6437,0.6373,0.639,0.6409,0.6399,0.6396,0.6521,0.6473,0.6526,0.661,0.6645,0.6661,0.6675,0.672,0.6737,0.6535,0.6535,0.6535,0,0.6581,0.6605,0.6546,0.6573,0.6572,0.6492,0.6535,0.6525,0.6507,0.6508,0.6468,0.6491,0.6473,0.6525,0.6555,0.6555,0.6566,0.6529,0.6663,0.6676,0.6688,0.6731,0.6748,0.6541,0.6541,0.654,0.6539,0,0.6711,0.6729,0.6766,0.6748,0.675,0.6786,0.6733,0.6743,0.6704,0.6674,0.6711,0.6687,0.6688,0.6697,0.6659,0.6743,0.6722,0.6674,0.6605,0.6715,0.6754,0.677,0.6551,0.6549,0.6547,0.6545,0,0,0.6912,0.686,0.6875,0.6865,0.6834,0.6847,0.688,0.6878,0.6889,0.6879,0.6905,0.6923,0.6877,0.6875,0.6835,0.6866,0.6967,0.6813,0.6812,0.6843,0.7059,0.7096,0.7115,0.6934,0.6937,0.6939,0.706,0,0.7034,0.7084,0.7032,0.7093,0.711,0.7034,0.7062,0.7047,0.702,0.7031,0.7001,0.7015,0.6954,0.6952,0.6978,0.6949,0.7009,0.6939,0.6959,0.6961,0.6967,0.7135,0.7175,0.7291,0.7075,0.7077,0.7079,0,0.7184,0.7178,0.7241,0.7205,0.721,0.7236,0.7231,0.7242,0.7223,0.7201,0.7198,0.715,0.718,0.7112,0.7153,0.7107,0.7112,0.7099,0.7102,0.7102,0.7027,0.7142,0.7326,0.7344,0.7102,0.7101,0.7099,0,0.7325,0.7334,0.7372,0.7367,0.7326,0.7346,0.733,0.7307,0.731,0.7306,0.7308,0.7308,0.7309,0.7311,0.7264,0.7219,0.7312,0.724,0.7296,0.7298,0.732,0.732,0.7509,0.7322,0.7322,0.7322,0.7321,0,0.7467,0.7509,0.7435,0.7459,0.7504,0.7443,0.749,0.7466,0.7447,0.7466,0.7402,0.7421,0.7358,0.7372,0.7336,0.7376,0.7377,0.7361,0.7351,0.7367,0.7369,0.737,0.7362,0.7326,0.7325,0.7324,0.7324,0,0.7633,0.7585,0.7622,0.758,0.757,0.7605,0.7569,0.759,0.7558,0.7583,0.7586,0.7536,0.7549,0.7502,0.7508,0.7483,0.7543,0.752,0.7549,0.7542,0.7601,0.7597,0.7799,0.7823,0.762,0.7622,0.7624,0,0.7727,0.7757,0.7717,0.7725,0.7712,0.7724,0.7726,0.7668,0.7673,0.7654,0.7678,0.7684,0.7687,0.771,0.7676,0.768,0.7656,0.7727,0.7657,0.7672,0.7658,0.7657,0.766,0.7742,0.7744,0.7746,0.7748,0,0.79,0.7875,0.7879,0.7875,0.7879,0.7874,0.7864,0.7874,0.7811,0.7821,0.7831,0.7833,0.7838,0.7846,0.7842,0.7827,0.7778,0.777,0.7783,0.7801,0.7817,0.781,0.759,0.7766,0.7764,0.7763,0.7762,0.7761,0.8033,0.8056,0.8032,0.8039,0.8025,0.8018,0.8035,0.8005,0.8012,0.801,0.7975,0.7993,0.7974,0.7964,0.7954,0.7968,0.7935,0.7955,0.7959,0.7965,0.7976,0.7814,0.7967,0.7966,0.7966,0.7965,0.7965,0,0.8203,0.8183,0.819,0.8178,0.8184,0.8135,0.8122,0.8131,0.8147,0.8132,0.8135,0.8148,0.8155,0.8121,0.8124,0.8142,0.8119,0.8145,0.8143,0.8141,0.8005,0.7993,0.8163,0.8162,0.8162,0.8162,0.8162,0.8162,0.8292,0.8329,0.8301,0.833,0.831,0.8326,0.8323,0.8316,0.8304,0.832,0.8325,0.8302,0.828,0.828,0.8285,0.8275,0.828,0.8313,0.8296,0.8169,0.815,0.8132,0.8121,0.8314,0.8315,0.843,0.8431,0.8432]},{"header":{"parameterUnit":"m.s-1","parameterCategory":1,"la1":30.2991,"la2":30.254,"lo1":-89.0895,"lo2":-89.0444,"dy":0.0017,"dx":0.0017,"nx":28,"ny":28,"refTime":"2023-09-10T21:00:00:Z","depth":0,"parameterNumber":3,"parameterNumberName":"V-component_of_WINDS"},"data":[0,0,0,0,0,0,0,0,0,0,0,0,0,0,0,0,0,0,0,0,0,0,0,0,0,0,0,0,0,0,0,0,0,0,0,0,0,0,0,0,0,0,0,0,0,0,0,0,0,0,0,0,0,0,0,0,0,0,-1.075,-1.075,0,-1.0723,-1.0722,-1.0722,-1.0714,-1.0714,-1.0714,-1.0714,-1.0685,-1.0684,-1.0684,0,0,0,0,0,0,0,0,0,0,0,0,0,-1.0794,-1.0793,-1.075,-1.075,-1.0749,-1.0723,-1.0722,-1.0722,-1.0714,-1.0714,-1.0714,-1.0714,-1.0686,-1.0685,-1.0683,0,0,0,0,0,0,0,0,0,0,0,0,0,-1.0771,-1.0793,-1.075,-1.0742,-1.0741,-1.0723,-1.0722,-1.0722,-1.0714,-1.0714,-1.0714,-1.0715,-1.0686,-1.0685,-1.0683,-1.0671,0,0,-1.0679,-1.0679,0,0,0,0,0,0,0,0,-1.0773,-1.077,-1.0744,-1.0743,-1.0742,-1.0722,-1.0727,-1.0705,-1.0714,-1.0724,-1.0714,-1.0715,-1.0697,-1.0695,-1.0689,-1.0669,-1.0668,-1.0679,-1.0678,-1.0678,-1.0677,0,0,0,0,0,0,0,-1.0774,-1.0771,-1.0739,-1.0743,-1.0742,-1.0739,-1.0737,-1.0723,-1.071,-1.0723,-1.0723,-1.072,-1.0697,-1.0691,-1.0689,-1.0668,-1.0679,-1.0678,-1.0677,-1.0676,-1.0634,-1.0634,0,0,0,0,0,0,-1.0777,-1.0772,-1.074,-1.0738,-1.0758,-1.0739,-1.0735,-1.0728,-1.071,-1.0707,-1.0719,-1.0719,-1.0693,-1.069,-1.0688,-1.0671,-1.0678,-1.0676,-1.0676,-1.0635,-1.0634,-1.0634,0,0,0,0,0,0,-1.0778,-1.0775,-1.0741,-1.0755,-1.0751,-1.0738,-1.0729,-1.0727,-1.0721,-1.0707,-1.0705,-1.0716,-1.0693,-1.0689,-1.0675,-1.067,-1.0676,-1.0675,-1.0635,-1.0635,-1.0634,-1.0637,0,0,0,0,0,0,-1.078,-1.0775,-1.077,-1.0755,-1.075,-1.0729,-1.0729,-1.0727,-1.0719,-1.0719,-1.0703,-1.07,-1.0693,-1.0677,-1.0673,-1.0668,-1.0673,-1.0636,-1.0635,-1.0634,-1.0638,-1.0637,-1.0637,0,0,0,0,0,-1.0781,-1.0772,-1.077,-1.0766,-1.0744,-1.0729,-1.0726,-1.0718,-1.0719,-1.0714,-1.0704,-1.0701,-1.0671,-1.0675,-1.0671,-1.0665,-1.0636,-1.0635,-1.0634,-1.0638,-1.0637,-1.0637,0,0,0,0,0,0,-1.0787,-1.077,-1.0768,-1.0754,-1.0743,-1.0728,-1.0721,-1.0717,-1.0706,-1.0706,-1.0696,-1.0692,-1.0678,-1.067,-1.0676,-1.0652,-1.0653,-1.0652,-1.0657,-1.0656,-1.0656,-1.0658,-1.0672,0,0,0,0,0,-1.0787,-1.0776,-1.0762,-1.0751,-1.0746,-1.0734,-1.0727,-1.0722,-1.071,-1.0705,-1.0695,-1.0684,-1.0671,-1.0663,-1.0652,-1.0637,-1.0633,-1.063,-1.063,-1.063,-1.0628,-1.0619,-1.0617,-1.0632,-1.0632,-1.0632,0,0,-1.0786,-1.0775,-1.0769,-1.0752,-1.0743,-1.0732,-1.073,-1.0719,-1.071,-1.0704,-1.0689,-1.0681,-1.0667,-1.0652,-1.0645,-1.0645,-1.0623,-1.0629,-1.0629,-1.0627,-1.0618,-1.0617,-1.0615,-1.0631,-1.0632,-1.0632,0,0,-1.0779,-1.077,-1.0759,-1.075,-1.0737,-1.0729,-1.0727,-1.0712,-1.0706,-1.0691,-1.0686,-1.0675,-1.0655,-1.0645,-1.0637,-1.0626,-1.0622,-1.0622,-1.0619,-1.061,-1.0609,-1.0608,-1.0603,-1.0601,-1.0621,-1.0621,-1.0621,0,-1.0779,-1.0763,-1.0754,-1.0743,-1.0735,-1.0729,-1.0717,-1.0709,-1.0692,-1.0686,-1.0687,-1.0661,-1.0651,-1.0633,-1.063,-1.0625,-1.0621,-1.0624,-1.061,-1.0609,-1.0608,-1.0603,-1.0601,-1.0621,-1.0621,-1.0621,-1.0621,0,-1.0764,-1.0752,-1.0745,-1.0729,-1.072,-1.0709,-1.0699,-1.0691,-1.0686,-1.0678,-1.0662,-1.0651,-1.0636,-1.0631,-1.0627,-1.0612,-1.0613,-1.0612,-1.0613,-1.0606,-1.0602,-1.06,-1.0621,-1.0621,-1.0621,-1.0621,0,0,-1.0759,-1.0738,-1.0736,-1.0728,-1.0712,-1.0703,-1.0691,-1.0677,-1.067,-1.0658,-1.0648,-1.063,-1.0629,-1.062,-1.0614,-1.0606,-1.0597,-1.0606,-1.0606,-1.0604,-1.058,-1.058,-1.0578,-1.0594,-1.0594,-1.0594,-1.058,0,-1.0749,-1.0728,-1.072,-1.0703,-1.0691,-1.0685,-1.0674,-1.0663,-1.0656,-1.0644,-1.0636,-1.0623,-1.0623,-1.0618,-1.061,-1.06,-1.0592,-1.0601,-1.0584,-1.0583,-1.0586,-1.0575,-1.0576,-1.0564,-1.0579,-1.0578,-1.0578,0,-1.0735,-1.0723,-1.0705,-1.069,-1.0684,-1.0675,-1.0661,-1.0651,-1.0638,-1.0633,-1.0623,-1.0617,-1.0604,-1.0606,-1.0587,-1.0593,-1.0586,-1.058,-1.0579,-1.0577,-1.058,-1.0572,-1.056,-1.0558,-1.0575,-1.0575,-1.0576,0,-1.0733,-1.0712,-1.0698,-1.0692,-1.0674,-1.0668,-1.066,-1.0647,-1.0639,-1.0626,-1.0621,-1.0607,-1.0599,-1.0588,-1.0578,-1.0581,-1.056,-1.0562,-1.0554,-1.0555,-1.055,-1.055,-1.0535,-1.0546,-1.0546,-1.0546,-1.0546,0,-1.0722,-1.0711,-1.0697,-1.0688,-1.0675,-1.0666,-1.0653,-1.0644,-1.0633,-1.0622,-1.0616,-1.0605,-1.0594,-1.0582,-1.0574,-1.0559,-1.0556,-1.0551,-1.0549,-1.0551,-1.0551,-1.0545,-1.0546,-1.0546,-1.0546,-1.0546,-1.0546,0,-1.0717,-1.0707,-1.0691,-1.0676,-1.0672,-1.0663,-1.0649,-1.064,-1.0632,-1.0618,-1.0614,-1.0601,-1.0587,-1.0576,-1.0558,-1.0553,-1.0536,-1.0535,-1.0541,-1.0539,-1.0532,-1.0533,-1.0513,-1.0509,-1.0523,-1.0523,-1.0523,0,-1.0711,-1.0702,-1.0685,-1.0677,-1.067,-1.0658,-1.0649,-1.0639,-1.063,-1.0614,-1.0607,-1.0592,-1.058,-1.0557,-1.0546,-1.0531,-1.0529,-1.0523,-1.0526,-1.0528,-1.0527,-1.0528,-1.0526,-1.0522,-1.0522,-1.0522,-1.0522,0,-1.07,-1.0695,-1.0684,-1.067,-1.0659,-1.0648,-1.0636,-1.063,-1.0618,-1.0609,-1.0594,-1.0584,-1.0565,-1.055,-1.0535,-1.0526,-1.0521,-1.0521,-1.0518,-1.052,-1.0523,-1.052,-1.0538,-1.0521,-1.0521,-1.0521,-1.0521,-1.0521,-1.0693,-1.0685,-1.0672,-1.0658,-1.0648,-1.0638,-1.0628,-1.0619,-1.0606,-1.059,-1.0585,-1.0569,-1.0556,-1.0534,-1.0525,-1.0513,-1.0513,-1.0509,-1.0508,-1.0507,-1.0507,-1.0526,-1.051,-1.051,-1.051,-1.051,-1.051,0,-1.0682,-1.0673,-1.0661,-1.0644,-1.0634,-1.0631,-1.0618,-1.0609,-1.0595,-1.0583,-1.0571,-1.0553,-1.0538,-1.0526,-1.051,-1.0502,-1.05,-1.0499,-1.0499,-1.0497,-1.0508,-1.0511,-1.0501,-1.0501,-1.0501,-1.0501,-1.0501,-1.0501,-1.0674,-1.0659,-1.0653,-1.0633,-1.0624,-1.0609,-1.0601,-1.0591,-1.0581,-1.0562,-1.055,-1.0542,-1.0529,-1.0512,-1.0498,-1.0495,-1.0489,-1.0488,-1.0484,-1.0495,-1.0496,-1.0497,-1.05,-1.0487,-1.0487,-1.0474,-1.0474,-1.0473]}]]